owner,sensor,date,latitude,longitude,vertical_datum,direction_of_sea_water_velocity,sea_water_speed,upward_sea_water_velocity,qcFlag 
TABS,ioos:station:wmo:42044:1,2004-09-01T00:00:00Z,26.1914,-97.0507,2.0,203.9005214,18.85701991,-99999.0,'11111222,11111222,99999999' 
TABS,ioos:station:wmo:42044:1,2004-09-01T00:30:00Z,26.1914,-97.0507,2.0,205.893376,19.46407203,-99999.0,'11111222,11111222,99999999' 
TABS,ioos:station:wmo:42044:1,2004-09-01T01:00:00Z,26.1914,-97.0507,2.0,214.3842369,17.84878987,-99999.0,'11111222,11111222,99999999' 
TABS,ioos:station:wmo:42044:1,2004-09-01T01:30:00Z,26.1914,-97.0507,2.0,202.4748898,12.79157926,-99999.0,'11111222,11111222,99999999' 
TABS,ioos:station:wmo:42044:1,2004-09-01T02:00:00Z,26.1914,-97.0507,2.0,214.5269437,20.50113411,-99999.0,'11111222,11111222,99999999' 
TABS,ioos:station:wmo:42044:1,2004-09-01T02:30:00Z,26.1914,-97.0507,2.0,209.7832232,18.40055706,-99999.0,'11111222,11111222,99999999' 
TABS,ioos:station:wmo:42044:1,2004-09-01T03:00:00Z,26.1914,-97.0507,2.0,210.6889252,16.10561703,-99999.0,'11111222,11111222,99999999' 
TABS,ioos:station:wmo:42044:1,2004-09-01T03:30:00Z,26.1914,-97.0507,2.0,208.5500722,21.30015258,-99999.0,'11111222,11111222,99999999' 
TABS,ioos:station:wmo:42044:1,2004-09-01T04:00:00Z,26.1914,-97.0507,2.0,207.223606,20.61343736,-99999.0,'11111222,11111222,99999999' 
TABS,ioos:station:wmo:42044:1,2004-09-01T04:30:00Z,26.1914,-97.0507,2.0,207.7329221,21.05919277,-99999.0,'11111222,11111222,99999999' 
TABS,ioos:station:wmo:42044:1,2004-09-01T05:00:00Z,26.1914,-97.0507,2.0,205.3949187,21.6854352,-99999.0,'11111222,11111222,99999999' 
TABS,ioos:station:wmo:42044:1,2004-09-01T05:30:00Z,26.1914,-97.0507,2.0,205.9996118,18.13539357,-99999.0,'11111222,11111222,99999999' 
TABS,ioos:station:wmo:42044:1,2004-09-01T06:00:00Z,26.1914,-97.0507,2.0,199.9466583,18.9359869,-99999.0,'11111222,11111222,99999999' 
TABS,ioos:station:wmo:42044:1,2004-09-01T06:30:00Z,26.1914,-97.0507,2.0,196.6114101,14.41147113,-99999.0,'11111222,11111222,99999999' 
TABS,ioos:station:wmo:42044:1,2004-09-01T07:00:00Z,26.1914,-97.0507,2.0,190.8929866,19.6846971,-99999.0,'11111222,11111222,99999999' 
TABS,ioos:station:wmo:42044:1,2004-09-01T07:30:00Z,26.1914,-97.0507,2.0,192.403229,19.83291456,-99999.0,'11111222,11111222,99999999' 
TABS,ioos:station:wmo:42044:1,2004-09-01T08:00:00Z,26.1914,-97.0507,2.0,187.4189121,18.1217135,-99999.0,'11111222,11111222,99999999' 
TABS,ioos:station:wmo:42044:1,2004-09-01T08:30:00Z,26.1914,-97.0507,2.0,184.710012,16.92716751,-99999.0,'11111222,11111222,99999999' 
TABS,ioos:station:wmo:42044:1,2004-09-01T09:00:00Z,26.1914,-97.0507,2.0,194.989809,15.73546631,-99999.0,'11111222,11111222,99999999' 
TABS,ioos:station:wmo:42044:1,2004-09-01T09:30:00Z,26.1914,-97.0507,2.0,206.5135989,10.0131164,-99999.0,'11111222,11111222,99999999' 
TABS,ioos:station:wmo:42044:1,2004-09-01T10:00:00Z,26.1914,-97.0507,2.0,196.1440906,8.307616987,-99999.0,'11133222,11111222,99999999' 
TABS,ioos:station:wmo:42044:1,2004-09-01T10:30:00Z,26.1914,-97.0507,2.0,191.7469032,11.05146597,-99999.0,'11111222,11111222,99999999' 
TABS,ioos:station:wmo:42044:1,2004-09-01T11:00:00Z,26.1914,-97.0507,2.0,186.352696,9.941046223,-99999.0,'11133222,11111222,99999999' 
TABS,ioos:station:wmo:42044:1,2004-09-01T11:30:00Z,26.1914,-97.0507,2.0,193.8909482,9.58018789,-99999.0,'11133222,11111222,99999999' 
TABS,ioos:station:wmo:42044:1,2004-09-01T12:00:00Z,26.1914,-97.0507,2.0,211.4921524,15.98434859,-99999.0,'11111222,11111222,99999999' 
TABS,ioos:station:wmo:42044:1,2004-09-01T12:30:00Z,26.1914,-97.0507,2.0,208.0398769,13.55059039,-99999.0,'11111222,11111222,99999999' 
TABS,ioos:station:wmo:42044:1,2004-09-01T13:00:00Z,26.1914,-97.0507,2.0,209.2824686,14.14786203,-99999.0,'11111222,11111222,99999999' 
TABS,ioos:station:wmo:42044:1,2004-09-01T13:30:00Z,26.1914,-97.0507,2.0,211.7968706,16.62511654,-99999.0,'11111222,11111222,99999999' 
TABS,ioos:station:wmo:42044:1,2004-09-01T14:00:00Z,26.1914,-97.0507,2.0,203.9114349,16.03638363,-99999.0,'11111222,11111222,99999999' 
TABS,ioos:station:wmo:42044:1,2004-09-01T14:30:00Z,26.1914,-97.0507,2.0,206.548872,16.10863433,-99999.0,'11111222,11111222,99999999' 
TABS,ioos:station:wmo:42044:1,2004-09-01T15:00:00Z,26.1914,-97.0507,2.0,202.3379435,14.86556423,-99999.0,'11111222,11111222,99999999' 
TABS,ioos:station:wmo:42044:1,2004-09-01T15:30:00Z,26.1914,-97.0507,2.0,198.6492847,15.19801303,-99999.0,'11111222,11111222,99999999' 
TABS,ioos:station:wmo:42044:1,2004-09-01T16:00:00Z,26.1914,-97.0507,2.0,196.8934802,14.10886246,-99999.0,'11111222,11111222,99999999' 
TABS,ioos:station:wmo:42044:1,2004-09-01T16:30:00Z,26.1914,-97.0507,2.0,179.9599178,14.37000348,-99999.0,'11111222,11111222,99999999' 
TABS,ioos:station:wmo:42044:1,2004-09-01T17:00:00Z,26.1914,-97.0507,2.0,184.7111066,15.46224434,-99999.0,'11111222,11111222,99999999' 
TABS,ioos:station:wmo:42044:1,2004-09-01T17:30:00Z,26.1914,-97.0507,2.0,194.7345915,16.70952124,-99999.0,'11111222,11111222,99999999' 
TABS,ioos:station:wmo:42044:1,2004-09-01T18:00:00Z,26.1914,-97.0507,2.0,189.3228606,16.91341775,-99999.0,'11111222,11111222,99999999' 
TABS,ioos:station:wmo:42044:1,2004-09-01T18:30:00Z,26.1914,-97.0507,2.0,195.8542989,18.19205596,-99999.0,'11111222,11111222,99999999' 
TABS,ioos:station:wmo:42044:1,2004-09-01T19:00:00Z,26.1914,-97.0507,2.0,196.4259286,20.29848517,-99999.0,'11111222,11111222,99999999' 
TABS,ioos:station:wmo:42044:1,2004-09-01T19:30:00Z,26.1914,-97.0507,2.0,199.24432,20.81302717,-99999.0,'11111222,11111222,99999999' 
TABS,ioos:station:wmo:42044:1,2004-09-01T20:00:00Z,26.1914,-97.0507,2.0,197.7894802,19.37650381,-99999.0,'11111222,11111222,99999999' 
TABS,ioos:station:wmo:42044:1,2004-09-01T20:30:00Z,26.1914,-97.0507,2.0,198.3151872,21.22525383,-99999.0,'11111222,11111222,99999999' 
TABS,ioos:station:wmo:42044:1,2004-09-01T21:00:00Z,26.1914,-97.0507,2.0,196.7208487,20.08944997,-99999.0,'11111222,11111222,99999999' 
TABS,ioos:station:wmo:42044:1,2004-09-01T21:30:00Z,26.1914,-97.0507,2.0,193.4705545,19.6608952,-99999.0,'11111222,11111222,99999999' 
TABS,ioos:station:wmo:42044:1,2004-09-01T22:00:00Z,26.1914,-97.0507,2.0,191.8206389,21.33240024,-99999.0,'11111222,11111222,99999999' 
TABS,ioos:station:wmo:42044:1,2004-09-01T22:30:00Z,26.1914,-97.0507,2.0,190.1496196,24.7980846,-99999.0,'11111222,11111222,99999999' 
TABS,ioos:station:wmo:42044:1,2004-09-01T23:00:00Z,26.1914,-97.0507,2.0,192.1885857,23.39744644,-99999.0,'11111222,11111222,99999999' 
TABS,ioos:station:wmo:42044:1,2004-09-01T23:30:00Z,26.1914,-97.0507,2.0,198.4175048,21.07974383,-99999.0,'11111222,11111222,99999999' 
TABS,ioos:station:wmo:42044:1,2004-09-02T00:00:00Z,26.1914,-97.0507,2.0,199.2160735,20.17404521,-99999.0,'11111222,11111222,99999999' 
TABS,ioos:station:wmo:42044:1,2004-09-02T00:30:00Z,26.1914,-97.0507,2.0,196.0018981,18.02858286,-99999.0,'11111222,11111222,99999999' 
TABS,ioos:station:wmo:42044:1,2004-09-02T01:00:00Z,26.1914,-97.0507,2.0,195.8274521,14.04240008,-99999.0,'11111222,11111222,99999999' 
TABS,ioos:station:wmo:42044:1,2004-09-02T01:30:00Z,26.1914,-97.0507,2.0,207.8097421,13.99661745,-99999.0,'11111222,11111222,99999999' 
TABS,ioos:station:wmo:42044:1,2004-09-02T02:00:00Z,26.1914,-97.0507,2.0,201.9598456,18.77201374,-99999.0,'11111222,11111222,99999999' 
TABS,ioos:station:wmo:42044:1,2004-09-02T02:30:00Z,26.1914,-97.0507,2.0,198.9942226,20.40082596,-99999.0,'11111222,11111222,99999999' 
TABS,ioos:station:wmo:42044:1,2004-09-02T03:00:00Z,26.1914,-97.0507,2.0,205.4802314,18.66556723,-99999.0,'11111222,11111222,99999999' 
TABS,ioos:station:wmo:42044:1,2004-09-02T03:30:00Z,26.1914,-97.0507,2.0,210.9134213,13.74218687,-99999.0,'11111222,11111222,99999999' 
TABS,ioos:station:wmo:42044:1,2004-09-02T04:00:00Z,26.1914,-97.0507,2.0,207.551071,15.06885862,-99999.0,'11111222,11111222,99999999' 
TABS,ioos:station:wmo:42044:1,2004-09-02T04:30:00Z,26.1914,-97.0507,2.0,203.7675416,13.74583573,-99999.0,'11111222,11111222,99999999' 
TABS,ioos:station:wmo:42044:1,2004-09-02T05:00:00Z,26.1914,-97.0507,2.0,194.682975,15.46505739,-99999.0,'11111222,11111222,99999999' 
TABS,ioos:station:wmo:42044:1,2004-09-02T05:30:00Z,26.1914,-97.0507,2.0,205.3862687,12.82879963,-99999.0,'11111222,11111222,99999999' 
TABS,ioos:station:wmo:42044:1,2004-09-02T06:00:00Z,26.1914,-97.0507,2.0,203.710296,16.1644672,-99999.0,'11111222,11111222,99999999' 
TABS,ioos:station:wmo:42044:1,2004-09-02T06:30:00Z,26.1914,-97.0507,2.0,208.3616205,12.69369135,-99999.0,'11111222,11111222,99999999' 
TABS,ioos:station:wmo:42044:1,2004-09-02T07:00:00Z,26.1914,-97.0507,2.0,202.274655,13.03254388,-99999.0,'11111222,11111222,99999999' 
TABS,ioos:station:wmo:42044:1,2004-09-02T07:30:00Z,26.1914,-97.0507,2.0,204.4868044,13.19700724,-99999.0,'11111222,11111222,99999999' 
TABS,ioos:station:wmo:42044:1,2004-09-02T08:00:00Z,26.1914,-97.0507,2.0,198.0936538,12.7505294,-99999.0,'11111222,11111222,99999999' 
TABS,ioos:station:wmo:42044:1,2004-09-02T08:30:00Z,26.1914,-97.0507,2.0,198.6126315,12.2190998,-99999.0,'11111222,11111222,99999999' 
TABS,ioos:station:wmo:42044:1,2004-09-02T09:00:00Z,26.1914,-97.0507,2.0,202.0625996,11.39438458,-99999.0,'11111222,11111222,99999999' 
TABS,ioos:station:wmo:42044:1,2004-09-02T09:30:00Z,26.1914,-97.0507,2.0,189.8178955,9.265705586,-99999.0,'11133222,11111222,99999999' 
TABS,ioos:station:wmo:42044:1,2004-09-02T10:00:00Z,26.1914,-97.0507,2.0,191.9094187,8.431494529,-99999.0,'11133222,11111222,99999999' 
TABS,ioos:station:wmo:42044:1,2004-09-02T10:30:00Z,26.1914,-97.0507,2.0,187.8150648,8.75128562,-99999.0,'11133222,11111222,99999999' 
TABS,ioos:station:wmo:42044:1,2004-09-02T11:00:00Z,26.1914,-97.0507,2.0,177.6831506,7.916470173,-99999.0,'11133222,11111222,99999999' 
TABS,ioos:station:wmo:42044:1,2004-09-02T11:30:00Z,26.1914,-97.0507,2.0,188.8819205,11.85213061,-99999.0,'11111222,11111222,99999999' 
TABS,ioos:station:wmo:42044:1,2004-09-02T12:00:00Z,26.1914,-97.0507,2.0,190.7914421,14.5269164,-99999.0,'11111222,11111222,99999999' 
TABS,ioos:station:wmo:42044:1,2004-09-02T12:30:00Z,26.1914,-97.0507,2.0,183.8246741,14.09138744,-99999.0,'11111222,11111222,99999999' 
TABS,ioos:station:wmo:42044:1,2004-09-02T13:00:00Z,26.1914,-97.0507,2.0,186.8814971,12.2683862,-99999.0,'11111222,11111222,99999999' 
TABS,ioos:station:wmo:42044:1,2004-09-02T13:30:00Z,26.1914,-97.0507,2.0,179.4998402,11.46043629,-99999.0,'11111222,11111222,99999999' 
TABS,ioos:station:wmo:42044:1,2004-09-02T14:00:00Z,26.1914,-97.0507,2.0,168.6728414,13.18684951,-99999.0,'11111222,11111222,99999999' 
TABS,ioos:station:wmo:42044:1,2004-09-02T14:30:00Z,26.1914,-97.0507,2.0,173.2345181,10.86565691,-99999.0,'11111222,11111222,99999999' 
TABS,ioos:station:wmo:42044:1,2004-09-02T15:00:00Z,26.1914,-97.0507,2.0,170.3241117,13.6846666,-99999.0,'11111222,11111222,99999999' 
TABS,ioos:station:wmo:42044:1,2004-09-02T15:30:00Z,26.1914,-97.0507,2.0,170.4318698,15.16090037,-99999.0,'11111222,11111222,99999999' 
TABS,ioos:station:wmo:42044:1,2004-09-02T16:00:00Z,26.1914,-97.0507,2.0,172.1589134,12.60787452,-99999.0,'11111222,11111222,99999999' 
TABS,ioos:station:wmo:42044:1,2004-09-02T16:30:00Z,26.1914,-97.0507,2.0,178.1175115,10.65574962,-99999.0,'11111222,11111222,99999999' 
TABS,ioos:station:wmo:42044:1,2004-09-02T17:00:00Z,26.1914,-97.0507,2.0,180.5620448,10.19049067,-99999.0,'11111222,11111222,99999999' 
TABS,ioos:station:wmo:42044:1,2004-09-02T17:30:00Z,26.1914,-97.0507,2.0,180.4776847,10.79037534,-99999.0,'11111222,11111222,99999999' 
TABS,ioos:station:wmo:42044:1,2004-09-02T18:00:00Z,26.1914,-97.0507,2.0,182.199741,8.336144193,-99999.0,'11133222,11111222,99999999' 
TABS,ioos:station:wmo:42044:1,2004-09-02T18:30:00Z,26.1914,-97.0507,2.0,176.6088436,10.98924019,-99999.0,'11111222,11111222,99999999' 
TABS,ioos:station:wmo:42044:1,2004-09-02T19:00:00Z,26.1914,-97.0507,2.0,181.5304497,9.733473173,-99999.0,'11133222,11111222,99999999' 
TABS,ioos:station:wmo:42044:1,2004-09-02T19:30:00Z,26.1914,-97.0507,2.0,175.8313752,11.83129748,-99999.0,'11111222,11111222,99999999' 
TABS,ioos:station:wmo:42044:1,2004-09-02T20:00:00Z,26.1914,-97.0507,2.0,180.2760061,14.52016873,-99999.0,'11111222,11111222,99999999' 
TABS,ioos:station:wmo:42044:1,2004-09-02T20:30:00Z,26.1914,-97.0507,2.0,180.0767998,14.88001344,-99999.0,'11111222,11111222,99999999' 
TABS,ioos:station:wmo:42044:1,2004-09-02T21:00:00Z,26.1914,-97.0507,2.0,183.5111682,14.85789352,-99999.0,'11111222,11111222,99999999' 
TABS,ioos:station:wmo:42044:1,2004-09-02T21:30:00Z,26.1914,-97.0507,2.0,185.755809,15.05591246,-99999.0,'11111222,11111222,99999999' 
TABS,ioos:station:wmo:42044:1,2004-09-02T22:00:00Z,26.1914,-97.0507,2.0,192.5023597,14.22738556,-99999.0,'11111222,11111222,99999999' 
TABS,ioos:station:wmo:42044:1,2004-09-02T22:30:00Z,26.1914,-97.0507,2.0,195.0610427,14.77763513,-99999.0,'11111222,11111222,99999999' 
TABS,ioos:station:wmo:42044:1,2004-09-02T23:00:00Z,26.1914,-97.0507,2.0,204.0278198,15.96328287,-99999.0,'11111222,11111222,99999999' 
TABS,ioos:station:wmo:42044:1,2004-09-02T23:30:00Z,26.1914,-97.0507,2.0,198.9427221,16.04919001,-99999.0,'11111222,11111222,99999999' 
TABS,ioos:station:wmo:42044:1,2004-09-03T00:00:00Z,26.1914,-97.0507,2.0,196.0137109,13.77452722,-99999.0,'11111222,11111222,99999999' 
TABS,ioos:station:wmo:42044:1,2004-09-03T00:30:00Z,26.1914,-97.0507,2.0,179.8603844,16.44004866,-99999.0,'11111222,11111222,99999999' 
TABS,ioos:station:wmo:42044:1,2004-09-03T01:00:00Z,26.1914,-97.0507,2.0,176.0993049,14.99473241,-99999.0,'11111222,11111222,99999999' 
TABS,ioos:station:wmo:42044:1,2004-09-03T01:30:00Z,26.1914,-97.0507,2.0,173.1161229,15.01825889,-99999.0,'11111222,11111222,99999999' 
TABS,ioos:station:wmo:42044:1,2004-09-03T02:00:00Z,26.1914,-97.0507,2.0,169.7212603,17.54150792,-99999.0,'11111222,11111222,99999999' 
TABS,ioos:station:wmo:42044:1,2004-09-03T02:30:00Z,26.1914,-97.0507,2.0,180.0939225,18.26002464,-99999.0,'11111222,11111222,99999999' 
TABS,ioos:station:wmo:42044:1,2004-09-03T03:00:00Z,26.1914,-97.0507,2.0,174.2985968,18.22012623,-99999.0,'11111222,11111222,99999999' 
TABS,ioos:station:wmo:42044:1,2004-09-03T03:30:00Z,26.1914,-97.0507,2.0,180.5040286,18.18070406,-99999.0,'11111222,11111222,99999999' 
TABS,ioos:station:wmo:42044:1,2004-09-03T04:00:00Z,26.1914,-97.0507,2.0,177.7902376,15.82176349,-99999.0,'11111222,11111222,99999999' 
TABS,ioos:station:wmo:42044:1,2004-09-03T04:30:00Z,26.1914,-97.0507,2.0,175.4396391,16.60255703,-99999.0,'11111222,11111222,99999999' 
TABS,ioos:station:wmo:42044:1,2004-09-03T05:00:00Z,26.1914,-97.0507,2.0,180.3875714,17.73040609,-99999.0,'11111222,11111222,99999999' 
TABS,ioos:station:wmo:42044:1,2004-09-03T05:30:00Z,26.1914,-97.0507,2.0,177.7958307,16.12192606,-99999.0,'11111222,11111222,99999999' 
TABS,ioos:station:wmo:42044:1,2004-09-03T06:00:00Z,26.1914,-97.0507,2.0,175.959595,16.18021013,-99999.0,'11111222,11111222,99999999' 
TABS,ioos:station:wmo:42044:1,2004-09-03T06:30:00Z,26.1914,-97.0507,2.0,179.9246478,15.25001311,-99999.0,'11111222,11111222,99999999' 
TABS,ioos:station:wmo:42044:1,2004-09-03T07:00:00Z,26.1914,-97.0507,2.0,177.5841856,14.47286081,-99999.0,'11111222,11111222,99999999' 
TABS,ioos:station:wmo:42044:1,2004-09-03T07:30:00Z,26.1914,-97.0507,2.0,178.2580607,11.51532023,-99999.0,'11111222,11111222,99999999' 
TABS,ioos:station:wmo:42044:1,2004-09-03T08:00:00Z,26.1914,-97.0507,2.0,178.2919391,13.08581293,-99999.0,'11111222,11111222,99999999' 
TABS,ioos:station:wmo:42044:1,2004-09-03T08:30:00Z,26.1914,-97.0507,2.0,177.2663959,11.53312187,-99999.0,'11111222,11111222,99999999' 
TABS,ioos:station:wmo:42044:1,2004-09-03T09:00:00Z,26.1914,-97.0507,2.0,170.363213,11.35015859,-99999.0,'11111222,11111222,99999999' 
TABS,ioos:station:wmo:42044:1,2004-09-03T09:30:00Z,26.1914,-97.0507,2.0,190.8016869,12.16556205,-99999.0,'11111222,11111222,99999999' 
TABS,ioos:station:wmo:42044:1,2004-09-03T10:00:00Z,26.1914,-97.0507,2.0,193.1312047,7.218760281,-99999.0,'11133222,11111222,99999999' 
TABS,ioos:station:wmo:42044:1,2004-09-03T10:30:00Z,26.1914,-97.0507,2.0,186.1957981,8.338710932,-99999.0,'11133222,11111222,99999999' 
TABS,ioos:station:wmo:42044:1,2004-09-03T11:00:00Z,26.1914,-97.0507,2.0,199.8278769,6.633257118,-99999.0,'11133222,11111222,99999999' 
TABS,ioos:station:wmo:42044:1,2004-09-03T11:30:00Z,26.1914,-97.0507,2.0,142.0643191,5.807004391,-99999.0,'11133222,11111222,99999999' 
TABS,ioos:station:wmo:42044:1,2004-09-03T12:00:00Z,26.1914,-97.0507,2.0,152.3760692,4.356604182,-99999.0,'11133222,11111222,99999999' 
TABS,ioos:station:wmo:42044:1,2004-09-03T12:30:00Z,26.1914,-97.0507,2.0,143.792326,8.650578015,-99999.0,'11133222,11111222,99999999' 
TABS,ioos:station:wmo:42044:1,2004-09-03T13:00:00Z,26.1914,-97.0507,2.0,143.4442928,7.656115203,-99999.0,'11133222,11111222,99999999' 
TABS,ioos:station:wmo:42044:1,2004-09-03T13:30:00Z,26.1914,-97.0507,2.0,150.9819814,9.09123754,-99999.0,'11133222,11111222,99999999' 
TABS,ioos:station:wmo:42044:1,2004-09-03T14:00:00Z,26.1914,-97.0507,2.0,155.5450466,8.744483976,-99999.0,'11133222,11111222,99999999' 
TABS,ioos:station:wmo:42044:1,2004-09-03T14:30:00Z,26.1914,-97.0507,2.0,156.9182945,9.641851482,-99999.0,'11133222,11111222,99999999' 
TABS,ioos:station:wmo:42044:1,2004-09-03T15:00:00Z,26.1914,-97.0507,2.0,170.7065027,11.14629983,-99999.0,'11111222,11111222,99999999' 
TABS,ioos:station:wmo:42044:1,2004-09-03T16:00:00Z,26.1914,-97.0507,2.0,169.8897234,11.05160622,-99999.0,'11111222,11111222,99999999' 
TABS,ioos:station:wmo:42044:1,2004-09-03T16:30:00Z,26.1914,-97.0507,2.0,184.7088168,11.32823905,-99999.0,'11111222,11111222,99999999' 
TABS,ioos:station:wmo:42044:1,2004-09-03T17:00:00Z,26.1914,-97.0507,2.0,194.2698109,11.88676996,-99999.0,'11111222,11111222,99999999' 
TABS,ioos:station:wmo:42044:1,2004-09-03T17:30:00Z,26.1914,-97.0507,2.0,191.928547,14.70760688,-99999.0,'11111222,11111222,99999999' 
TABS,ioos:station:wmo:42044:1,2004-09-03T18:00:00Z,26.1914,-97.0507,2.0,193.7430457,12.33309775,-99999.0,'11111222,11111222,99999999' 
TABS,ioos:station:wmo:42044:1,2004-09-03T18:30:00Z,26.1914,-97.0507,2.0,193.5632414,13.81529949,-99999.0,'11111222,11111222,99999999' 
TABS,ioos:station:wmo:42044:1,2004-09-03T19:00:00Z,26.1914,-97.0507,2.0,199.9048382,13.80472383,-99999.0,'11111222,11111222,99999999' 
TABS,ioos:station:wmo:42044:1,2004-09-03T19:30:00Z,26.1914,-97.0507,2.0,198.0212788,14.90104023,-99999.0,'11111222,11111222,99999999' 
TABS,ioos:station:wmo:42044:1,2004-09-03T20:00:00Z,26.1914,-97.0507,2.0,193.1089671,14.99066376,-99999.0,'11111222,11111222,99999999' 
TABS,ioos:station:wmo:42044:1,2004-09-03T20:30:00Z,26.1914,-97.0507,2.0,199.9888903,16.2063105,-99999.0,'11111222,11111222,99999999' 
TABS,ioos:station:wmo:42044:1,2004-09-03T21:00:00Z,26.1914,-97.0507,2.0,212.2400298,17.32051096,-99999.0,'11111222,11111222,99999999' 
TABS,ioos:station:wmo:42044:1,2004-09-03T21:30:00Z,26.1914,-97.0507,2.0,218.4224862,19.63120985,-99999.0,'11111222,11111222,99999999' 
TABS,ioos:station:wmo:42044:1,2004-09-03T22:00:00Z,26.1914,-97.0507,2.0,213.7458014,19.85550302,-99999.0,'11111222,11111222,99999999' 
TABS,ioos:station:wmo:42044:1,2004-09-03T22:30:00Z,26.1914,-97.0507,2.0,208.3023062,21.2389948,-99999.0,'11111222,11111222,99999999' 
TABS,ioos:station:wmo:42044:1,2004-09-03T23:00:00Z,26.1914,-97.0507,2.0,213.9187154,20.8236116,-99999.0,'11111222,11111222,99999999' 
TABS,ioos:station:wmo:42044:1,2004-09-03T23:30:00Z,26.1914,-97.0507,2.0,218.7722786,23.01068665,-99999.0,'11111222,11111222,99999999' 
TABS,ioos:station:wmo:42044:1,2004-09-04T00:00:00Z,26.1914,-97.0507,2.0,221.7401953,23.13152827,-99999.0,'11111222,11111222,99999999' 
TABS,ioos:station:wmo:42044:1,2004-09-04T00:30:00Z,26.1914,-97.0507,2.0,216.552562,20.6023154,-99999.0,'11111222,11111222,99999999' 
TABS,ioos:station:wmo:42044:1,2004-09-04T01:00:00Z,26.1914,-97.0507,2.0,216.8242875,17.70200554,-99999.0,'11111222,11111222,99999999' 
TABS,ioos:station:wmo:42044:1,2004-09-04T01:30:00Z,26.1914,-97.0507,2.0,216.8937178,19.00600168,-99999.0,'11111222,11111222,99999999' 
TABS,ioos:station:wmo:42044:1,2004-09-04T02:00:00Z,26.1914,-97.0507,2.0,210.9634737,19.0672127,-99999.0,'11111222,11111222,99999999' 
TABS,ioos:station:wmo:42044:1,2004-09-04T02:30:00Z,26.1914,-97.0507,2.0,210.5505661,19.75200496,-99999.0,'11111222,11111222,99999999' 
TABS,ioos:station:wmo:42044:1,2004-09-04T03:00:00Z,26.1914,-97.0507,2.0,205.6514088,19.35786404,-99999.0,'11111222,11111222,99999999' 
TABS,ioos:station:wmo:42044:1,2004-09-04T03:30:00Z,26.1914,-97.0507,2.0,217.075309,20.05412925,-99999.0,'11111222,11111222,99999999' 
TABS,ioos:station:wmo:42044:1,2004-09-04T04:00:00Z,26.1914,-97.0507,2.0,210.0658187,21.01801608,-99999.0,'11111222,11111222,99999999' 
TABS,ioos:station:wmo:42044:1,2004-09-04T04:30:00Z,26.1914,-97.0507,2.0,214.4194131,19.60192082,-99999.0,'11111222,11111222,99999999' 
TABS,ioos:station:wmo:42044:1,2004-09-04T05:00:00Z,26.1914,-97.0507,2.0,219.0450835,19.49405037,-99999.0,'11111222,11111222,99999999' 
TABS,ioos:station:wmo:42044:1,2004-09-04T05:30:00Z,26.1914,-97.0507,2.0,216.3857647,14.21050668,-99999.0,'11111222,11111222,99999999' 
TABS,ioos:station:wmo:42044:1,2004-09-04T06:00:00Z,26.1914,-97.0507,2.0,214.9639654,15.21641548,-99999.0,'11111222,11111222,99999999' 
TABS,ioos:station:wmo:42044:1,2004-09-04T06:30:00Z,26.1914,-97.0507,2.0,208.6512407,16.70555896,-99999.0,'11111222,11111222,99999999' 
TABS,ioos:station:wmo:42044:1,2004-09-04T07:00:00Z,26.1914,-97.0507,2.0,213.2264813,13.37703256,-99999.0,'11111222,11111222,99999999' 
TABS,ioos:station:wmo:42044:1,2004-09-04T07:30:00Z,26.1914,-97.0507,2.0,218.3671852,11.63197318,-99999.0,'11111222,11111222,99999999' 
TABS,ioos:station:wmo:42044:1,2004-09-04T08:00:00Z,26.1914,-97.0507,2.0,213.3336439,11.15523644,-99999.0,'11111222,11111222,99999999' 
TABS,ioos:station:wmo:42044:1,2004-09-04T08:30:00Z,26.1914,-97.0507,2.0,213.5320842,12.09251008,-99999.0,'11111222,11111222,99999999' 
TABS,ioos:station:wmo:42044:1,2004-09-04T09:00:00Z,26.1914,-97.0507,2.0,211.922753,11.0632093,-99999.0,'11111222,11111222,99999999' 
TABS,ioos:station:wmo:42044:1,2004-09-04T09:30:00Z,26.1914,-97.0507,2.0,214.8307224,12.53593634,-99999.0,'11111222,11111222,99999999' 
TABS,ioos:station:wmo:42044:1,2004-09-04T10:00:00Z,26.1914,-97.0507,2.0,208.2597884,12.3977135,-99999.0,'11111222,11111222,99999999' 
TABS,ioos:station:wmo:42044:1,2004-09-04T10:30:00Z,26.1914,-97.0507,2.0,205.4354011,11.57166367,-99999.0,'11111222,11111222,99999999' 
TABS,ioos:station:wmo:42044:1,2004-09-04T11:00:00Z,26.1914,-97.0507,2.0,214.5437325,12.46827173,-99999.0,'11111222,11111222,99999999' 
TABS,ioos:station:wmo:42044:1,2004-09-04T11:30:00Z,26.1914,-97.0507,2.0,213.8894139,10.34799497,-99999.0,'11111222,11111222,99999999' 
TABS,ioos:station:wmo:42044:1,2004-09-04T12:00:00Z,26.1914,-97.0507,2.0,210.3081123,13.49439143,-99999.0,'11111222,11111222,99999999' 
TABS,ioos:station:wmo:42044:1,2004-09-04T12:30:00Z,26.1914,-97.0507,2.0,252.8614239,14.25287339,-99999.0,'11111222,11111222,99999999' 
TABS,ioos:station:wmo:42044:1,2004-09-04T13:00:00Z,26.1914,-97.0507,2.0,246.0118965,13.82393938,-99999.0,'11111222,11111222,99999999' 
TABS,ioos:station:wmo:42044:1,2004-09-04T13:30:00Z,26.1914,-97.0507,2.0,248.0729453,11.89010092,-99999.0,'11111222,11111222,99999999' 
TABS,ioos:station:wmo:42044:1,2004-09-04T14:00:00Z,26.1914,-97.0507,2.0,249.2139119,13.72318476,-99999.0,'11111222,11111222,99999999' 
TABS,ioos:station:wmo:42044:1,2004-09-04T14:30:00Z,26.1914,-97.0507,2.0,251.7628219,11.88707281,-99999.0,'11111222,11111222,99999999' 
TABS,ioos:station:wmo:42044:1,2004-09-04T15:00:00Z,26.1914,-97.0507,2.0,244.6130337,13.48186931,-99999.0,'11111222,11111222,99999999' 
TABS,ioos:station:wmo:42044:1,2004-09-04T15:30:00Z,26.1914,-97.0507,2.0,248.1787389,10.92260042,-99999.0,'11111222,11111222,99999999' 
TABS,ioos:station:wmo:42044:1,2004-09-04T16:00:00Z,26.1914,-97.0507,2.0,242.4814229,10.21577212,-99999.0,'11111222,11111222,99999999' 
TABS,ioos:station:wmo:42044:1,2004-09-04T16:30:00Z,26.1914,-97.0507,2.0,248.2196756,9.917988707,-99999.0,'11133222,11111222,99999999' 